Location: El Bakhil
(32.7726°N, 5.5387°W)
Time: 20:10:08
(UTC+00:00)

Envisat - Pass Details

Date: 05 December 2021
Orbit: 764 x 766 km, 98.2° (Epoch: 18 January)

Event Time Altitude Azimuth Distance (km) Brightness Sun altitude
Rises 17:48:11 0° 208° (SSW) 3,217 7.1 -7.1°
Reaches altitude 10° 17:51:23 10° 230° (SW) 2,296 6.9 -7.7°
Maximum altitude 17:54:24 16° 267° (W) 1,927 6.3 -8.3°
Drops below altitude 10° 17:57:25 10° 303° (WNW) 2,304 6.0 -8.9°
Sets 18:00:40 0° 325° (NW) 3,235 6.4 -9.5°
